Date String (YYYY-MM-DD hh:mm:ss) UTC,Instrument flags,Ambient pressure (hPa),Sample flow (lpm),Bypass flow (lpm),Sample temperature (°C),Ambient temperature (°C),ASC tube jacket temperature (°C),LED temperature (°C),Box temperature (°C),Sample RH (%),Span deviation,Mass concentration (μg/m³),Mass concentration (μg/m³),Mass concentration (μg/m³)
DateTimeUTC,F1_M11,P_M11,Q1_M11,Q2_M11,T1_M11,T2_M11,T3_M11,T4_M11,T5_M11,U1_M11,ZSPAN_M11,X0_M11,X2_M11,X1_M11
2023-05-15 07:00:00,,0844.5,4.99,0.00,28.4,26.8,00.0,36.8,30.0,27.3,0000.0,0001.31,0001.24,0001.20
2023-05-15 07:01:00,,0844.4,4.99,0.00,28.4,26.8,00.0,36.8,30.0,27.3,0000.0,0001.32,0001.25,0001.21
2023-05-15 07:02:00,,0844.4,5.00,0.00,28.4,26.8,00.0,36.8,30.0,27.3,0000.0,0001.34,0001.27,0001.23
2023-05-15 07:03:00,,0844.4,5.00,0.00,28.4,26.8,00.0,36.8,30.0,27.3,0000.0,0001.33,0001.28,0001.24
2023-05-15 07:04:00,,0844.3,5.00,0.00,28.4,26.8,00.0,36.8,30.0,27.3,0000.0,0001.31,0001.26,0001.23
2023-05-15 07:05:00,,0844.4,4.99,0.00,28.4,26.8,00.0,36.8,30.0,27.3,0000.0,0001.26,0001.23,0001.21
2023-05-15 07:06:00,,0844.3,5.01,0.00,28.4,26.8,00.0,36.8,30.0,27.3,0000.0,0001.26,0001.22,0001.20
2023-05-15 07:07:00,,0844.3,5.01,0.00,28.4,26.8,00.0,36.8,30.0,27.3,0000.0,0001.26,0001.23,0001.19
2023-05-15 07:08:00,,0844.4,4.99,0.00,28.4,26.8,00.0,36.8,30.0,27.3,0000.0,0001.27,0001.24,0001.19
2023-05-15 07:09:00,,0844.4,5.00,0.00,28.4,26.8,00.0,36.8,30.0,27.3,0000.0,0001.27,0001.24,0001.20
2023-05-15 07:10:00,,0844.3,5.01,0.00,28.4,26.8,00.0,36.8,30.0,27.3,0000.0,0001.27,0001.25,0001.21
2023-05-15 07:11:00,,0844.3,5.00,0.00,28.4,26.8,00.0,36.8,30.0,27.3,0000.0,0001.28,0001.26,0001.22
2023-05-15 07:12:00,,0844.3,4.99,0.00,28.4,26.8,00.0,36.8,30.0,27.3,0000.0,0001.26,0001.25,0001.23
2023-05-15 07:13:00,,0844.4,5.01,0.00,28.4,26.8,00.0,36.8,30.0,27.3,0000.0,0001.27,0001.26,0001.23
2023-05-15 07:14:00,,0844.4,5.00,0.00,28.4,26.8,00.0,36.8,30.0,27.3,0000.0,0001.29,0001.28,0001.23
2023-05-15 07:15:00,,0844.4,4.98,0.00,28.4,26.8,00.0,36.8,30.0,27.3,0000.0,0001.32,0001.30,0001.26
2023-05-15 07:16:00,,0844.4,5.01,0.00,28.4,26.8,00.0,36.8,30.0,27.3,0000.0,0001.34,0001.33,0001.29
2023-05-15 07:17:00,,0844.4,5.01,0.00,28.4,26.8,00.0,36.8,30.0,27.3,0000.0,0001.36,0001.34,0001.30
2023-05-15 07:18:00,,0844.4,5.00,0.00,28.4,26.8,00.0,36.8,30.0,27.3,0000.0,0001.35,0001.34,0001.31
2023-05-15 07:19:00,,0844.4,5.00,0.00,28.4,26.8,00.0,36.8,30.0,27.3,0000.0,0001.35,0001.34,0001.31
2023-05-15 07:20:00,,0844.4,5.00,0.00,28.4,26.8,00.0,36.8,30.0,27.3,0000.0,0001.36,0001.35,0001.33
2023-05-15 07:21:00,,0844.4,4.99,0.00,28.4,26.8,00.0,36.8,29.9,27.2,0000.0,0001.38,0001.37,0001.34
2023-05-15 07:22:00,,0844.4,5.01,0.00,28.4,26.8,00.0,36.8,29.9,27.3,0000.0,0001.40,0001.39,0001.35
2023-05-15 07:23:00,,0844.4,5.00,0.00,28.4,26.8,00.0,36.8,30.0,27.2,0000.0,0001.41,0001.40,0001.36
2023-05-15 07:24:00,,0844.3,5.01,0.00,28.4,26.8,00.0,36.8,29.9,27.2,0000.0,0001.43,0001.40,0001.35
2023-05-15 07:25:00,,0844.3,5.00,0.00,28.4,26.8,00.0,36.8,29.9,27.2,0000.0,0001.40,0001.37,0001.33
2023-05-15 07:26:00,,0844.3,4.99,0.00,28.4,26.8,00.0,36.8,29.9,27.2,0000.0,0001.37,0001.35,0001.31
2023-05-15 07:27:00,,0844.2,5.00,0.00,28.4,26.7,00.0,36.8,29.9,27.2,0000.0,0001.40,0001.32,0001.27
2023-05-15 07:28:00,,0844.2,4.99,0.00,28.4,26.7,00.0,36.8,29.9,27.2,0000.0,0001.36,0001.29,0001.23
2023-05-15 07:29:00,,0844.3,5.00,0.00,28.4,26.7,00.0,36.8,29.9,27.2,0000.0,0001.35,0001.28,0001.22
2023-05-15 07:30:00,,0844.2,5.01,0.00,28.4,26.7,00.0,36.7,29.9,27.2,0000.0,0001.37,0001.27,0001.19
2023-05-15 07:31:00,,0844.2,5.01,0.00,28.4,26.7,00.0,36.7,29.9,27.2,0000.0,0001.34,0001.23,0001.16
2023-05-15 07:32:00,,0844.3,5.00,0.00,28.4,26.7,00.0,36.7,29.9,27.3,0000.0,0001.29,0001.18,0001.11
2023-05-15 07:33:00,,0844.2,4.99,0.00,28.4,26.7,00.0,36.7,29.9,27.3,0000.0,0001.24,0001.12,0001.07
2023-05-15 07:34:00,,0844.2,5.00,0.00,28.4,26.7,00.0,36.7,29.9,27.2,0000.0,0001.26,0001.11,0001.04
2023-05-15 07:35:00,,0844.2,5.00,0.00,28.4,26.7,00.0,36.7,29.9,27.2,0000.0,0001.20,0001.07,0001.01
2023-05-15 07:36:00,,0844.2,5.00,0.00,28.3,26.7,00.0,36.7,29.9,27.2,0000.0,0001.19,0001.06,0000.99
2023-05-15 07:37:00,,0844.2,5.01,0.00,28.3,26.7,00.0,36.7,29.9,27.2,0000.0,0001.18,0001.04,0000.98
2023-05-15 07:38:00,,0844.2,5.00,0.00,28.3,26.7,00.0,36.7,29.9,27.3,0000.0,0001.12,0001.02,0000.97
2023-05-15 07:39:00,,0844.2,5.00,0.00,28.3,26.7,00.0,36.7,29.9,27.3,0000.0,0001.13,0001.01,0000.96
2023-05-15 07:40:00,,0844.2,5.00,0.00,28.3,26.7,00.0,36.7,29.9,27.2,0000.0,0001.09,0000.98,0000.93
2023-05-15 07:41:00,,0844.2,4.99,0.00,28.3,26.7,00.0,36.7,29.9,27.1,0000.0,0001.03,0000.94,0000.91
2023-05-15 07:42:00,,0844.2,5.00,0.00,28.3,26.7,00.0,36.7,29.9,27.2,0000.0,0001.05,0000.95,0000.91
2023-05-15 07:43:00,,0844.2,5.00,0.00,28.3,26.7,00.0,36.7,29.9,27.3,0000.0,0001.08,0000.95,0000.91
2023-05-15 07:44:00,,0844.2,5.00,0.00,28.3,26.7,00.0,36.7,29.9,27.3,0000.0,0001.10,0000.96,0000.90
2023-05-15 07:45:00,,0844.2,4.99,0.00,28.3,26.7,00.0,36.7,29.9,27.2,0000.0,0001.06,0000.94,0000.89
2023-05-15 07:46:00,,0844.2,4.99,0.00,28.3,26.7,00.0,36.7,29.9,27.3,0000.0,0001.06,0000.93,0000.88
2023-05-15 07:47:00,,0844.2,5.00,0.00,28.3,26.7,00.0,36.7,29.9,27.2,0000.0,0001.04,0000.92,0000.87
2023-05-15 07:48:00,,0844.2,5.01,0.00,28.3,26.7,00.0,36.7,29.9,27.1,0000.0,0001.06,0000.93,0000.87
2023-05-15 07:49:00,,0844.2,5.00,0.00,28.3,26.7,00.0,36.7,29.9,27.1,0000.0,0001.06,0000.93,0000.87
2023-05-15 07:50:00,,0844.2,5.01,0.00,28.3,26.7,00.0,36.7,29.9,27.2,0000.0,0001.04,0000.92,0000.87
2023-05-15 07:51:00,,0844.2,4.98,0.00,28.3,26.7,00.0,36.7,29.9,27.1,0000.0,0001.07,0000.95,0000.89
2023-05-15 07:52:00,,0844.2,5.01,0.00,28.3,26.7,00.0,36.7,29.9,27.1,0000.0,0001.10,0000.97,0000.91
2023-05-15 07:53:00,,0844.2,5.01,0.00,28.3,26.7,00.0,36.7,29.9,27.1,0000.0,0001.10,0000.98,0000.92
2023-05-15 07:54:00,,0844.2,4.99,0.00,28.3,26.7,00.0,36.7,29.9,27.1,0000.0,0001.10,0000.99,0000.94
2023-05-15 07:55:00,,0844.2,5.00,0.00,28.3,26.7,00.0,36.7,29.8,27.0,0000.0,0001.10,0001.00,0000.96
2023-05-15 07:56:00,,0844.2,5.00,0.00,28.3,26.7,00.0,36.7,29.8,27.1,0000.0,0001.11,0001.02,0000.99
2023-05-15 07:57:00,,0844.1,5.00,0.00,28.3,26.7,00.0,36.7,29.9,27.1,0000.0,0001.16,0001.05,0001.01
2023-05-15 07:58:00,,0844.2,5.00,0.00,28.3,26.7,00.0,36.7,29.9,27.0,0000.0,0001.19,0001.07,0001.03
2023-05-15 07:59:00,,0844.2,5.00,0.00,28.3,26.7,00.0,36.7,29.8,27.0,0000.0,0001.19,0001.09,0001.06
